This demonstration page uses our WeatherBlox Daily Observations layout. Learn more.

39.92423, -83.80882

Hourly Observations for August 20, 2017

Temp ( °F °C ) Dew Point ( °F °C ) Humidity (%) Winds ( mph kmh ) Pressure ( in mb ) Visibility ( mi km ) Precip ( " mm )
12:56 am 00:56 Clear 63 17.2 61 16.1 93 93 ENE 5 7 30.03 1017 10 16.0934 0 0
1:56 am 01:56 Clear 64 17.8 62 16.7 93 93 Calm 30.04 1017 10 16.0934 0 0
2:56 am 02:56 Clear 63 17.2 61 16.1 93 93 E 3 6 30.04 1017 10 16.0934 0 0
3:56 am 03:56 Partly Cloudy 62 16.7 60 15.6 93 93 ENE 3 6 30.04 1017 10 16.0934 0 0
4:56 am 04:56 Mostly Cloudy 63 17.2 60 15.6 90 90 E 3 6 30.05 1018 10 16.0934 0 0
5:56 am 05:56 Mostly Cloudy 63 17.2 61 16.1 93 93 Calm 30.06 1018 10 16.0934 0 0
6:56 am 06:56 Sunny 62 16.7 61 16.1 96 96 SE 3 6 30.06 1018 9 14.48406 0 0
7:56 am 07:56 Mostly Cloudy 65 18.3 63 17.2 93 93 E 3 6 30.08 1019 9 14.48406 0 0
8:56 am 08:56 Mostly Cloudy 71 21.7 67 19.4 87 87 ESE 6 9 30.09 1019 10 16.0934 0 0
9:56 am 09:56 Sunny 75 23.9 69 20.6 82 82 SE 7 11 30.1 1019 10 16.0934 0 0
10:56 am 10:56 Sunny 78 25.6 70 21.1 76 76 SE 8 13 30.1 1019 10 16.0934 0 0
11:56 am 11:56 Sunny 81 27.2 71 21.7 72 72 S 7 11 30.11 1020 10 16.0934 0 0
12:56 pm 12:56 Mostly Sunny 83 28.3 72 22.2 70 70 SSE 7 11 30.1 1019 10 16.0934 0 0
1:56 pm 13:56 Partly Cloudy 84 28.9 71 21.7 65 65 S 6 9 30.09 1019 10 16.0934 0 0
2:56 pm 14:56 Mostly Cloudy 85 29.4 70 21.1 61 61 SSW 6 9 30.08 1019 10 16.0934 0 0
3:56 pm 15:56 Mostly Sunny 86 30 69 20.6 57 57 S 7 11 30.06 1018 10 16.0934 0 0
4:56 pm 16:56 Mostly Sunny 86 30 69 20.6 57 57 S 8 13 30.04 1017 10 16.0934 0 0
5:56 pm 17:56 Sunny 85 29.4 69 20.6 59 59 S 6 9 30.05 1018 10 16.0934 0 0
6:56 pm 18:56 Mostly Cloudy 82 27.8 70 21.1 67 67 S 3 6 30.06 1018 10 16.0934 0 0
7:56 pm 19:56 Mostly Cloudy 81 27.2 71 21.7 72 72 W 7 11 30.08 1019 10 16.0934 0 0
8:56 pm 20:56 Clear 76 24.4 67 19.4 74 74 SW 3 6 30.09 1019 10 16.0934 0 0
9:56 pm 21:56 Clear 72 22.2 68 20 87 87 SSE 3 6 30.1 1019 10 16.0934 0 0
10:56 pm 22:56 Clear 70 21.1 67 19.4 90 90 S 3 6 30.11 1020 10 16.0934 0 0
11:56 pm 23:56 Clear 68 20 66 18.9 93 93 Calm 30.11 1020 10 16.0934 0 0

Powered by AerisWeather